This demonstration page uses our WeatherBlox Daily Observations layout. Learn more.

Left ArrowRight Arrow

Hourly Observations for May 1, 2022

Temp ( °F °C ) Dew Point ( °F °C ) Humidity (%) Winds ( mph kmh ) Pressure ( in mb ) Visibility ( mi km ) Precip ( " mm )
12:43 am 00:43 Cloudy 48 8.9 37 2.8 66 66 WNW 23 37 29.81 1009 10 16 0.00 0.00
12:52 am 00:52 Cloudy 48 8.9 37 2.8 66 66 WNW 24 39 29.79 1009 10 16 0.00 0.00
1:22 am 01:22 Cloudy 48 8.9 38 3.3 68 68 WNW 18 30 29.81 1009 10 16 0.00 0.00
1:30 am 01:30 Cloudy 48 8.9 38 3.3 68 68 WNW 14 22 29.80 1009 10 16 0.00 0.00
1:52 am 01:52 Cloudy 49 9.4 38 3.3 66 66 WNW 24 39 29.79 1009 10 16 0.00 0.00
2:52 am 02:52 Cloudy 47 8.3 37 2.8 69 69 NW 20 31 29.81 1010 10 16 0.00 0.00
3:17 am 03:17 Cloudy 48 8.9 38 3.3 68 68 NW 18 30 29.83 1010 10 16 0.00 0.00
3:52 am 03:52 Cloudy 48 8.9 39 3.9 71 71 WNW 17 28 29.82 1010 10 16 0.00 0.00
4:30 am 04:30 Cloudy 48 8.9 38 3.3 68 68 WNW 14 22 29.84 1010 10 16 0.00 0.00
4:52 am 04:52 Mostly Cloudy 48 8.9 37 2.8 66 66 WNW 29 46 29.83 1010 10 16 0.00 0.00
5:17 am 05:17 Mostly Cloudy 48 8.9 38 3.3 68 68 WNW 15 24 29.85 1011 10 16 0.00 0.00
5:48 am 05:48 Mostly Cloudy 46 8 37 3 71 71 NW 21 33 29.86 1011 10 16 0.00 0.00
5:52 am 05:52 Mostly Cloudy 47 8.3 37 2.8 69 69 NW 18 30 29.84 1011 10 16 0.00 0.00
6:26 am 06:26 Cloudy 47 8.3 37 2.8 69 69 NW 17 28 29.87 1011 10 16 0.00 0.00
6:40 am 06:40 Cloudy 47 8.3 37 2.8 69 69 NW 20 31 29.87 1011 10 16 0.00 0.00
6:52 am 06:52 Cloudy 48 8.9 37 2.8 66 66 NW 16 26 29.86 1011 10 16 0.00 0.00
7:14 am 07:14 Cloudy 48 8.9 37 2.8 66 66 NW 20 31 29.88 1012 10 16 0.00 0.00
7:52 am 07:52 Mostly Cloudy 48 8.9 37 2.8 66 66 NW 15 24 29.89 1012 10 16 0.00 0.00
8:52 am 08:52 Mostly Cloudy 48 8.9 37 2.8 66 66 NW 18 30 29.92 1013 10 16 0.00 0.00
9:52 am 09:52 Mostly Cloudy 49 9.4 37 2.8 64 64 NW 21 33 29.94 1014 10 16 0.00 0.00
10:52 am 10:52 Mostly Cloudy 50 10 37 2.8 61 61 NW 26 43 29.96 1014 10 16 0.00 0.00
11:52 am 11:52 Mostly Cloudy 53 11.7 38 3.3 57 57 WNW 18 30 29.96 1015 10 16 0.00 0.00
12:03 pm 12:03 Mostly Cloudy 54 12.2 38 3.3 55 55 WNW 20 31 29.96 1015 10 16 0.00 0.00
12:52 pm 12:52 Mostly Cloudy 56 13.3 39 3.9 53 53 NW 18 30 29.97 1015 10 16 0.00 0.00
1:52 pm 13:52 Mostly Cloudy 59 15 41 5 51 51 NW 22 35 29.96 1015 10 16 0.00 0.00
2:52 pm 14:52 Mostly Cloudy 60 15.6 42 5.6 52 52 NNW 18 30 29.98 1015 10 16 0.00 0.00
3:52 pm 15:52 Mostly Cloudy 62 16.7 42 5.6 48 48 NNW 15 24 29.98 1015 10 16 0.00 0.00
4:52 pm 16:52 Mostly Cloudy 61 16.1 41 5 48 48 NNW 10 17 29.98 1015 10 16 0.00 0.00
5:52 pm 17:52 Mostly Cloudy 60 15.6 41 5 50 50 NNW 14 22 29.97 1015 10 16 0.00 0.00
6:52 pm 18:52 Mostly Cloudy 59 15 41 5 51 51 N 13 20 29.98 1015 10 16 0.00 0.00
7:52 pm 19:52 Mostly Cloudy 56 13.3 42 5.6 60 60 N 9 15 30.00 1016 10 16 0.00 0.00
8:52 pm 20:52 Mostly Cloudy 51 10.6 41 5 69 69 N 7 11 30.02 1017 10 16 0.00 0.00
9:52 pm 21:52 Mostly Cloudy 48 8.9 41 5 77 77 N 6 9 30.05 1018 10 16 0.00 0.00
10:52 pm 22:52 Mostly Cloudy 47 8.3 40 4.4 77 77 NNE 8 13 30.07 1018 10 16 0.00 0.00
11:52 pm 23:52 Partly Cloudy 46 7.8 40 4.4 79 79 N 3 6 30.09 1019 10 16 0.00 0.00

Powered by AerisWeather